Location: DARK SKY Beskydy - Park tmavé oblohy, www.darkskybeskydy.cz
(49.4926°N, 18.5016°E)
Time: 17:48:34
(UTC+02:00)

PCSat - Pass Details

Date: 04 August 2024
Orbit: 781 x 793 km, 67.1° (Epoch: 08 September)

Event Time Altitude Azimuth Distance (km) Brightness Sun altitude
Rises 02:30:10 0° 326° (NW) 3,301 13.2 -19.9°
Reaches altitude 10° 02:32:48 10° 335° (NNW) 2,369 12.5 -19.7°
Maximum altitude 02:37:47 36° 41° (NE) 1,253 11.2 -19.4°
Drops below altitude 10° 02:42:45 10° 107° (ESE) 2,358 12.1 -19.0°
Sets 02:45:21 0° 116° (ESE) 3,284 12.8 -18.8°
